Theta_e
330 328 331 328 327 326 325 323 322 315 311 313 313 316 315 315 313 315 314 314 314 313 312 312 312 311 310 311 311 311 309 307 307 309 306 305 305 306
331 330 328 326 326 324 324 322 319 320 313 312 312 312 312 313 312 312 310 311 310 310 310 310 309 309 308 308 308 308 307 306 306 307 307 306 304 302
328 327 326 327 324 323 323 320 319 318 316 311 311 310 311 311 310 308 307 306 305 304 304 303 302 303 304 305 305 305 305 304 304 304 304 304 303 302
326 325 326 326 324 323 322 319 320 317 317 312 309 308 308 308 307 306 304 301 298 297 295 294 293 294 297 300 301 301 299 299 299 300 301 299 297 295
324 321 323 322 323 322 319 320 319 317 315 314 309 307 306 304 303 301 298 295 294 293 294 294 293 292 292 292 291 291 291 292 292 292 291 291 294 297
324 323 321 319 322 320 320 319 319 316 313 312 309 307 305 301 298 297 294 294 293 292 292 291 291 292 291 291 290 289 289 290 291 292 290 291 294 295
322 319 319 321 321 320 320 319 316 315 312 311 307 305 301 299 297 295 294 292 292 291 290 290 290 290 289 289 289 288 288 290 291 290 290 290 292 292
319 321 320 320 319 320 318 316 315 313 310 308 305 301 299 296 295 295 294 294 293 290 289 288 287 288 288 288 288 288 289 291 290 290 289 289 289 291
320 319 318 318 318 316 314 313 311 309 305 304 302 298 295 294 293 292 293 292 291 289 289 288 287 286 286 287 288 289 289 289 289 291 289 289 287 289
320 319 318 316 315 313 312 310 308 307 305 297 294 293 292 292 291 290 289 288 288 287 288 287 286 286 286 286 286 287 288 288 289 289 290 289 289 289
317 316 315 313 312 311 310 308 299 294 293 293 292 292 291 291 290 289 289 289 288 286 286 287 286 286 286 286 286 285 286 287 288 288 289 289 289 289
314 312 311 311 309 308 305 295 294 292 293 293 292 291 290 289 288 288 288 288 288 286 285 286 286 287 287 286 286 286 287 287 287 287 287 288 288 289
310 309 308 307 303 295 295 294 294 293 293 292 291 290 289 288 287 287 286 286 285 285 284 285 286 286 286 287 287 286 286 286 287 287 287 287 288 289
306 304 302 296 294 294 294 294 293 293 292 291 290 288 287 287 286 286 285 285 284 284 285 285 286 286 287 287 287 287 286 286 286 287 287 289 289 290
301 295 293 293 293 293 293 293 293 293 292 291 289 287 287 287 286 286 286 285 285 285 285 285 285 286 286 286 286 286 287 286 286 287 289 289 290 292
293 293 293 293 293 293 293 293 293 292 292 291 289 287 287 287 287 287 287 286 286 286 285 285 285 286 286 286 286 286 286 287 287 288 288 289 290 291
294 293 293 293 293 292 292 292 292 292 292 290 288 288 287 287 287 287 286 286 286 286 286 285 285 285 285 286 287 287 287 288 288 288 289 290 291 292
294 293 293 292 292 292 292 292 292 291 290 290 289 289 288 287 287 287 286 286 286 286 286 286 286 286 286 285 285 286 287 288 288 289 288 289 290 291
294 293 293 292 292 292 292 292 292 291 291 291 291 290 288 287 287 287 286 286 286 286 286 286 286 287 287 286 285 286 286 287 288 289 288 288 289 290
294 293 293 292 293 293 293 292 292 291 292 291 291 290 289 288 287 287 287 287 286 286 286 286 286 286 286 285 286 286 287 287 288 288 288 288 289 289
293 293 293 293 293 293 292 292 292 292 292 292 291 290 290 290 288 287 287 287 287 287 286 286 285 285 286 286 286 287 286 286 287 288 288 288 288 288
293 293 293 293 293 293 292 292 292 292 292 291 291 291 290 290 289 289 288 287 287 287 287 286 286 286 286 286 287 287 287 286 286 286 287 287 287 287
293 293 293 293 293 293 293 293 293 292 292 291 291 291 290 290 290 289 289 288 287 287 287 287 287 287 286 286 287 286 286 287 287 287 286 287 288 287
Wind_Speed
30 30 27 29 29 31 26 28 28 23 19 21 19 18 18 21 18 15 14 7 6 4 4 5 4 4 5 13 9 6 10 13 11 6 16 20 21 20
31 29 29 29 26 24 24 27 18 24 20 24 27 24 21 19 16 13 14 12 9 7 4 2 3 2 2 2 7 7 5 2 2 7 13 14 15 21
31 29 30 30 26 25 20 26 20 26 30 31 29 26 20 17 15 14 10 9 6 3 2 4 3 1 2 5 5 2 3 3 11 11 16 16 20 21
31 29 27 28 26 22 24 28 21 23 22 36 30 26 23 17 14 10 8 9 11 18 16 13 12 6 3 6 9 9 11 12 13 17 17 19 22 23
30 30 28 26 23 24 28 26 22 25 30 34 34 26 22 16 11 8 8 11 11 11 14 17 17 17 14 12 12 12 12 14 15 16 16 14 15 15
26 29 26 22 27 30 29 25 22 27 32 29 28 24 18 13 9 9 10 10 10 9 9 11 13 15 17 17 17 15 15 17 17 16 16 14 13 15
29 28 26 30 31 29 26 22 25 29 26 25 25 19 13 9 8 10 10 8 9 8 8 9 9 10 13 14 16 16 17 18 15 15 15 13 9 8
29 30 32 32 31 25 24 26 26 25 27 23 19 13 11 10 10 8 6 3 2 7 7 9 9 11 13 14 15 16 17 16 17 19 19 15 8 7
37 36 35 32 30 32 31 29 26 24 20 17 17 13 13 10 8 7 7 7 7 5 5 9 9 11 12 12 16 15 16 16 16 20 20 17 15 13
39 36 35 35 34 33 33 33 28 23 19 19 17 16 13 11 9 8 9 10 10 8 6 8 8 10 11 12 12 11 11 13 15 18 22 21 16 15
38 36 34 34 32 29 31 31 30 29 23 20 19 16 14 12 12 9 8 7 9 9 9 5 7 10 11 11 12 14 14 16 17 17 18 19 21 18
42 40 35 32 30 25 26 30 34 30 25 22 21 19 18 16 15 14 10 8 6 6 8 7 6 5 10 10 11 12 12 14 16 17 18 19 19 15
45 40 34 28 27 30 30 31 32 30 26 25 23 21 19 19 20 18 16 15 14 13 11 7 9 9 10 9 11 12 13 13 13 14 17 18 20 20
42 38 34 32 33 33 33 32 30 29 27 25 23 21 20 19 20 20 21 22 20 17 14 12 12 11 10 10 9 10 12 14 14 14 15 17 18 20
41 40 39 37 38 37 33 31 29 27 26 25 23 21 19 18 17 18 18 20 22 21 18 16 14 13 12 12 11 12 9 13 15 15 16 17 25 28
44 42 40 39 38 37 33 29 28 27 26 26 24 21 17 16 16 15 15 15 17 18 20 19 16 14 14 13 12 13 14 13 14 15 15 20 24 25
45 43 41 40 38 35 32 30 29 28 27 24 22 21 19 18 17 16 15 15 15 14 13 14 16 16 14 14 15 14 14 14 15 15 17 23 27 28
42 42 40 36 34 33 32 30 28 27 25 24 23 22 20 19 18 16 15 15 15 13 12 10 10 10 13 18 16 15 13 14 15 15 16 24 24 29
40 40 38 34 33 32 31 29 28 27 26 25 24 22 21 20 17 16 15 15 15 14 13 12 11 10 12 16 15 15 16 17 13 13 14 18 23 26
37 38 36 34 33 32 31 30 28 27 26 25 23 22 21 21 19 17 15 15 15 14 15 13 13 12 12 12 12 16 15 15 14 11 11 14 15 18
36 36 34 33 32 31 30 29 28 26 25 24 23 22 21 21 21 20 21 19 16 16 16 15 16 15 12 11 12 12 16 18 16 13 8 6 11 21
35 35 33 32 31 30 29 28 27 25 24 23 22 22 21 21 21 20 18 17 16 15 15 14 14 12 12 12 13 11 11 13 16 18 20 18 17 16
34 33 32 31 30 29 28 27 25 24 23 22 21 21 20 20 20 19 18 17 15 14 13 13 14 14 14 14 12 11 12 11 11 13 19 20 18 18
Wind_Direction
216 222 209 207 198 199 205 205 195 157 148 141 130 149 146 142 134 136 123 130 113 96 78 88 79 16 27 99 101 108 89 77 69 35 46 38 16 359
207 203 201 208 195 194 189 190 194 197 154 155 146 148 149 143 134 134 125 123 107 95 72 47 36 51 357 172 146 150 166 172 327 320 311 320 354 2
205 201 203 186 182 185 188 183 182 187 164 149 150 146 150 147 144 128 114 91 84 69 350 320 324 3 319 280 274 228 222 296 296 304 315 312 320 330
191 189 185 182 179 182 185 178 181 177 181 156 152 150 144 141 133 122 98 86 73 70 58 56 53 45 286 276 285 297 318 315 313 308 303 315 321 324
180 178 172 172 179 180 175 175 170 165 169 163 156 152 146 138 133 113 95 83 77 74 67 68 55 48 42 34 30 27 21 18 18 13 354 349 15 23
181 176 163 171 184 173 169 166 160 162 164 162 156 155 147 131 109 102 96 88 82 67 59 57 58 53 48 40 32 23 21 30 29 35 16 26 47 38
150 154 170 173 170 163 159 157 155 153 154 155 153 146 133 122 116 114 108 102 86 73 64 55 52 48 38 29 27 25 30 45 38 25 21 36 67 64
157 160 163 159 151 149 145 142 150 148 147 150 142 131 129 128 116 118 124 122 40 66 67 60 52 54 37 39 35 51 43 44 41 30 24 32 43 41
146 144 139 135 134 134 132 135 134 135 130 132 132 125 122 121 117 106 105 110 108 113 74 68 56 56 53 44 61 62 64 53 41 43 28 35 38 35
139 138 137 138 141 140 135 133 130 128 130 129 126 122 117 112 115 112 106 99 85 83 92 80 65 65 58 48 79 79 70 57 65 48 44 38 36 48
132 132 134 136 140 140 140 134 128 122 120 116 112 105 103 99 96 92 97 86 85 71 80 84 88 73 65 58 50 59 55 61 57 55 53 47 36 40
127 127 130 130 136 142 136 131 123 118 119 113 106 102 96 92 90 83 82 89 104 70 62 80 76 105 64 55 54 50 41 52 42 42 38 34 33 29
128 128 126 127 134 131 127 123 118 120 116 111 105 97 89 84 80 79 84 83 78 78 79 89 74 73 87 71 52 42 37 33 30 25 23 31 30 26
128 124 124 129 127 123 118 115 115 115 112 106 100 94 88 84 81 79 78 77 78 78 75 79 76 76 76 66 49 34 32 30 30 29 28 28 29 31
126 126 129 128 124 118 114 114 113 111 109 105 101 97 92 87 84 80 77 75 75 70 68 72 71 72 71 62 49 36 36 28 34 37 34 36 36 47
130 131 131 127 121 117 116 115 112 110 106 101 99 96 93 89 84 80 79 75 72 66 64 67 68 68 63 61 57 49 44 47 36 39 37 39 40 40
135 134 130 127 122 119 117 114 111 107 102 98 96 94 90 86 82 78 76 77 76 72 65 62 64 65 84 75 58 55 51 47 38 36 46 54 52 47
136 134 130 127 123 122 119 116 111 106 102 99 95 91 89 85 81 77 77 76 76 72 69 67 66 65 56 59 82 76 56 48 41 41 53 56 54 52
136 135 132 129 126 124 120 116 113 108 103 99 95 93 89 85 81 79 77 76 74 71 67 69 75 77 74 67 45 58 83 76 55 40 43 56 50 54
138 136 132 130 129 126 122 118 114 109 105 101 98 95 91 89 86 82 80 79 77 74 72 68 72 73 81 75 69 58 64 70 61 61 44 47 45 59
138 134 131 132 131 127 123 119 114 111 108 105 102 98 95 93 90 89 88 86 83 78 75 69 66 67 67 80 76 65 56 53 48 54 65 59 40 45
137 133 134 134 132 128 124 120 116 114 111 109 105 103 100 97 96 94 92 89 82 78 75 72 72 73 78 79 78 69 55 42 35 49 56 59 61 49
137 135 136 133 131 129 125 122 119 117 115 112 110 106 105 103 100 96 91 88 87 84 78 75 70 72 71 71 70 63 55 50 50 45 52 54 58 58